Change the Weather History Date:

Wednesday, December 11, 2013

  Actual Average (KEKN) Record (KEKN)
Temperature  
Mean Temperature 26 °F 34 °F  
Max Temperature 32 °F 43 °F 68 °F (2007)
Min Temperature 21 °F 24 °F -8 °F (1917)
Degree Days  
Heating Degree Days 38 32  
Month to date heating degree days 330  
Since 1 July heating degree days 1614  
Cooling Degree Days 0 0  
Month to date cooling degree days 0  
Year to date cooling degree days 475  
Moisture  
Dew Point 18 °F    
Average Humidity 67    
Maximum Humidity 86    
Minimum Humidity 59    
Precipitation  
Precipitation 0.00 in 0.11 in 1.84 in (2008)
Month to date precipitation 1.24  
Year to date precipitation 43.91  
Snow  
Snow 0.00 in - - ()
Month to date snowfall  
Since 1 September snowfall  
Snow Depth -    
Sea Level Pressure  
Sea Level Pressure 30.30 in    
Wind  
Wind Speed 9 mph (SW)    
Max Wind Speed 15 mph    
Max Gust Speed 21 mph    
Visibility 10 miles    
Events Snow    
T = Trace of Precipitation, MM = Missing Value Source: NWS Daily Summary

Daily Weather History Graph

Daily Weather History Graph

Search for Another Location

Airport or City:

Trip Planner

Search our weather history database for the weather conditions in past years. The results will help you decide how hot, cold, wet, or windy it might be!

Date:

Astronomy

Dec. 11, 2013 Rise Set
Actual Time 7:30 AM EST 4:58 PM EST
Civil Twilight 7:00 AM EST 5:28 PM EST
Nautical Twilight 6:26 AM EST 6:02 PM EST
Astronomical Twilight 5:54 AM EST 6:34 PM EST
Moon 1:29 PM EST (12/11) 1:52 AM EST (12/11)
Length of Visible Light 10h 28m
Length of Day
9h 28m
Waxing Gibbous, 71% of the Moon is Illuminated
Dec 11
Waxing Gibbous
Dec 17
Full
Dec 25
Last Quarter
Jan 1
New
Jan 7
First Quarter

Hourly Weather History & Observations

Time (EST) Temp. Windchill Dew Point Humidity Pressure Visibility Wind Dir Wind Speed Gust Speed Precip Events Conditions
12:15 AM 26.6 °F 16.8 °F 14.0 °F 59% 30.28 in 10.0 mi West 10.4 mph - N/A   Clear
12:35 AM 24.8 °F 16.1 °F 14.0 °F 64% 30.29 in 10.0 mi West 8.1 mph - N/A   Scattered Clouds
12:55 AM 24.8 °F 19.1 °F 14.0 °F 64% 30.29 in 10.0 mi WSW 4.6 mph - N/A   Scattered Clouds
1:15 AM 24.8 °F 15.3 °F 14.0 °F 64% 30.30 in 10.0 mi West 9.2 mph - N/A   Partly Cloudy
1:35 AM 24.8 °F 16.1 °F 15.8 °F 69% 30.31 in 10.0 mi West 8.1 mph - N/A   Mostly Cloudy
1:55 AM 24.8 °F 14.0 °F 15.8 °F 69% 30.32 in 10.0 mi West 11.5 mph - N/A   Mostly Cloudy
2:15 AM 24.8 °F 13.4 °F 15.8 °F 69% 30.32 in 10.0 mi West 12.7 mph - N/A   Overcast
2:35 AM 24.8 °F 16.1 °F 15.8 °F 69% 30.33 in 10.0 mi West 8.1 mph - N/A   Overcast
2:55 AM 23.0 °F 15.8 °F 15.8 °F 74% 30.34 in 10.0 mi WSW 5.8 mph - N/A   Overcast
3:15 AM 24.8 °F 16.9 °F 17.6 °F 74% 30.34 in 10.0 mi WSW 6.9 mph - N/A   Overcast
3:35 AM 23.0 °F 14.7 °F 15.8 °F 74% 30.34 in 10.0 mi WSW 6.9 mph - N/A   Mostly Cloudy
3:55 AM 23.0 °F 13.9 °F 15.8 °F 74% 30.34 in 10.0 mi SW 8.1 mph - N/A   Scattered Clouds
4:15 AM 23.0 °F 12.4 °F 15.8 °F 74% 30.34 in 10.0 mi SW 10.4 mph - N/A   Partly Cloudy
4:35 AM 23.0 °F 13.1 °F 15.8 °F 74% 30.33 in 10.0 mi WSW 9.2 mph - N/A   Partly Cloudy
4:55 AM 21.2 °F 13.6 °F 15.8 °F 80% 30.33 in 10.0 mi SW 5.8 mph - N/A   Partly Cloudy
5:15 AM 21.2 °F 12.6 °F 15.8 °F 80% 30.33 in 10.0 mi SSW 6.9 mph - N/A   Partly Cloudy
5:35 AM 21.2 °F 11.7 °F 15.8 °F 80% 30.34 in 10.0 mi WSW 8.1 mph - N/A   Clear
5:55 AM 21.2 °F 12.6 °F 15.8 °F 80% 30.34 in 10.0 mi SW 6.9 mph - N/A   Scattered Clouds
6:15 AM 21.2 °F 13.6 °F 15.8 °F 80% 30.35 in 10.0 mi WSW 5.8 mph - N/A   Mostly Cloudy
6:35 AM 21.2 °F 13.6 °F 15.8 °F 80% 30.35 in 10.0 mi WSW 5.8 mph - N/A   Mostly Cloudy
6:55 AM 21.2 °F 14.9 °F 15.8 °F 80% 30.35 in 10.0 mi South 4.6 mph - N/A   Scattered Clouds
7:15 AM 21.2 °F 14.9 °F 15.8 °F 80% 30.35 in 10.0 mi SSW 4.6 mph - N/A   Clear
7:35 AM 21.2 °F 14.9 °F 15.8 °F 80% 30.35 in 10.0 mi SSW 4.6 mph - N/A   Partly Cloudy
7:55 AM 21.2 °F 14.9 °F 17.6 °F 86% 30.36 in 10.0 mi SW 4.6 mph - N/A   Partly Cloudy
8:15 AM 21.2 °F 13.6 °F 17.6 °F 86% 30.36 in 10.0 mi South 5.8 mph - N/A   Clear
8:35 AM 23.0 °F 15.8 °F 17.6 °F 80% 30.36 in 10.0 mi SSW 5.8 mph - N/A   Clear
8:55 AM 23.0 °F 13.9 °F 17.6 °F 80% 30.36 in 10.0 mi SSW 8.1 mph - N/A   Clear
9:15 AM 24.8 °F 14.6 °F 17.6 °F 74% 30.37 in 10.0 mi SSW 10.4 mph - N/A   Clear
9:35 AM 26.6 °F 16.2 °F 17.6 °F 69% 30.36 in 10.0 mi SSW 11.5 mph - N/A   Clear
9:55 AM 26.6 °F 14.7 °F 15.8 °F 64% 30.37 in 10.0 mi SSW 15.0 mph 18.4 mph N/A   Clear
10:15 AM 26.6 °F 16.8 °F 15.8 °F 64% 30.36 in 10.0 mi SSW 10.4 mph 16.1 mph N/A   Clear
10:35 AM 28.4 °F 19.1 °F 15.8 °F 59% 30.35 in 10.0 mi SSW 10.4 mph - N/A   Clear
10:55 AM 28.4 °F 20.4 °F 15.8 °F 59% 30.35 in 10.0 mi SW 8.1 mph - N/A   Clear
11:15 AM 28.4 °F 19.7 °F 17.6 °F 64% 30.34 in 10.0 mi SSW 9.2 mph - N/A   Clear
11:35 AM 30.2 °F 21.3 °F 17.6 °F 60% 30.33 in 10.0 mi SW 10.4 mph - N/A   Clear
11:55 AM 30.2 °F 19.8 °F 17.6 °F 60% 30.31 in 10.0 mi SW 13.8 mph 18.4 mph N/A   Clear
12:15 PM 30.2 °F 20.8 °F 17.6 °F 60% 30.30 in 10.0 mi SW 11.5 mph - N/A   Clear
12:35 PM 32.0 °F 23.6 °F 19.4 °F 60% 30.29 in 10.0 mi SW 10.4 mph 16.1 mph N/A   Clear
12:55 PM 32.0 °F 24.2 °F 19.4 °F 60% 30.28 in 10.0 mi SSW 9.2 mph 16.1 mph N/A   Clear
1:15 PM 32.0 °F 23.0 °F 19.4 °F 60% 30.27 in 10.0 mi WSW 11.5 mph - N/A   Clear
1:35 PM 32.0 °F 22.5 °F 19.4 °F 60% 30.26 in 10.0 mi SW 12.7 mph 18.4 mph N/A   Clear
1:55 PM 32.0 °F 24.2 °F 19.4 °F 60% 30.26 in 10.0 mi WSW 9.2 mph 17.3 mph N/A   Clear
2:15 PM 32.0 °F 23.0 °F 19.4 °F 60% 30.25 in 10.0 mi SW 11.5 mph 17.3 mph N/A   Clear
2:35 PM 32.0 °F 24.2 °F 19.4 °F 60% 30.24 in 10.0 mi SW 9.2 mph 17.3 mph N/A   Clear
2:55 PM 32.0 °F 23.0 °F 19.4 °F 60% 30.24 in 10.0 mi SW 11.5 mph - N/A   Clear
3:15 PM 32.0 °F 24.8 °F 19.4 °F 60% 30.24 in 10.0 mi SW 8.1 mph - N/A   Clear
3:35 PM 32.0 °F 23.0 °F 19.4 °F 60% 30.24 in 10.0 mi SW 11.5 mph - N/A   Clear
3:55 PM 32.0 °F 24.8 °F 19.4 °F 60% 30.24 in 10.0 mi SW 8.1 mph - N/A   Clear
4:15 PM 32.0 °F 24.8 °F 19.4 °F 60% 30.24 in 10.0 mi SW 8.1 mph - N/A   Clear
4:35 PM 32.0 °F 26.4 °F 19.4 °F 60% 30.24 in 10.0 mi SW 5.8 mph - N/A   Clear
4:55 PM 32.0 °F 27.5 °F 19.4 °F 60% 30.24 in 10.0 mi SW 4.6 mph - N/A   Clear
5:15 PM 32.0 °F 28.7 °F 19.4 °F 60% 30.24 in 10.0 mi SSW 3.5 mph - N/A   Clear
5:35 PM 32.0 °F 26.4 °F 19.4 °F 60% 30.24 in 10.0 mi SSW 5.8 mph - N/A   Clear
5:55 PM 32.0 °F 27.5 °F 19.4 °F 60% 30.24 in 10.0 mi SW 4.6 mph - N/A   Clear
6:15 PM 32.0 °F 28.7 °F 19.4 °F 60% 30.24 in 10.0 mi SSW 3.5 mph - N/A   Clear
6:35 PM 30.2 °F 23.4 °F 19.4 °F 64% 30.25 in 10.0 mi SW 6.9 mph - N/A   Clear
6:55 PM 32.0 °F 25.6 °F 19.4 °F 60% 30.25 in 10.0 mi SW 6.9 mph - N/A   Clear
7:15 PM 30.2 °F 24.3 °F 19.4 °F 64% 30.25 in 10.0 mi SSW 5.8 mph - N/A   Clear
7:35 PM 30.2 °F 22.6 °F 19.4 °F 64% 30.25 in 10.0 mi SW 8.1 mph - N/A   Clear
7:55 PM 32.0 °F 24.8 °F 19.4 °F 60% 30.25 in 10.0 mi SW 8.1 mph - N/A   Clear
8:15 PM 32.0 °F 23.6 °F 19.4 °F 60% 30.25 in 10.0 mi SW 10.4 mph - N/A   Clear
8:35 PM 32.0 °F 23.0 °F 19.4 °F 60% 30.26 in 10.0 mi WSW 11.5 mph - N/A   Clear
8:55 PM 32.0 °F 23.0 °F 19.4 °F 60% 30.26 in 10.0 mi WSW 11.5 mph 19.6 mph N/A   Clear
9:15 PM 32.0 °F 22.1 °F 19.4 °F 60% 30.27 in 10.0 mi West 13.8 mph 19.6 mph N/A   Clear
9:35 PM 30.2 °F 21.3 °F 19.4 °F 64% 30.27 in 10.0 mi West 10.4 mph 17.3 mph N/A   Scattered Clouds
9:55 PM 30.2 °F 22.6 °F 19.4 °F 64% 30.28 in 10.0 mi West 8.1 mph - N/A   Scattered Clouds
10:15 PM 30.2 °F 22.6 °F 19.4 °F 64% 30.29 in 10.0 mi West 8.1 mph - N/A   Mostly Cloudy
10:35 PM 30.2 °F 20.2 °F 19.4 °F 64% 30.30 in 10.0 mi West 12.7 mph 17.3 mph N/A   Overcast
10:55 PM 30.2 °F 20.8 °F 19.4 °F 64% 30.31 in 10.0 mi West 11.5 mph 19.6 mph N/A   Overcast
11:15 PM 28.4 °F 19.7 °F 19.4 °F 69% 30.31 in 10.0 mi WNW 9.2 mph 20.7 mph N/A Snow Light Snow
11:35 PM 28.4 °F 19.7 °F 19.4 °F 69% 30.32 in 9.0 mi NW 9.2 mph 19.6 mph N/A Snow Light Snow
11:55 PM 28.4 °F 21.2 °F 19.4 °F 69% 30.32 in 10.0 mi NW 6.9 mph 19.6 mph N/A   Mostly Cloudy